Weather History for KLKU - June, 2013

Change the Weather History Date:

Sunday, June 30, 2013

  Actual Average (KCHO) Record (KCHO)
Temperature  
Mean Temperature 78 °F 75 °F  
Max Temperature 84 °F 86 °F 105 °F (1936)
Min Temperature 71 °F 64 °F 50 °F (1919)
Degree Days  
Heating Degree Days 0 0  
Month to date heating degree days 8  
Since 1 June heating degree days 11  
Since 1 July heating degree days 4444  
Cooling Degree Days 12 10  
Month to date cooling degree days 219  
Year to date cooling degree days 305  
Since 1 June cooling degree days 219  
Growing Degree Days 28 (Base 50)    
Moisture  
Dew Point 72 °F    
Average Humidity 87    
Maximum Humidity 94    
Minimum Humidity 70    
Precipitation  
Precipitation 0.03 in 0.12 in 0.47 in (2005)
Month to date precipitation 3.73  
Year to date precipitation 20.20  
Sea Level Pressure  
Sea Level Pressure 29.78 in    
Wind  
Wind Speed 3 mph (South)    
Max Wind Speed 8 mph    
Max Gust Speed -    
Visibility 9 miles    
Events Rain    
T = Trace of Precipitation, MM = Missing Value Source: NWS Daily Summary

Daily Weather History Graph

Daily Weather History Graph

Search for Another Location

Airport or City:

Trip Planner

Search our weather history database for the weather conditions in past years. The results will help you decide how hot, cold, wet, or windy it might be!

Date:

Astronomy

Jun. 30, 2013 Rise Set
Actual Time 5:52 AM EDT 8:38 PM EDT
Civil Twilight 5:21 AM EDT 9:09 PM EDT
Nautical Twilight 4:41 AM EDT 9:49 PM EDT
Astronomical Twilight 3:57 AM EDT 10:33 PM EDT
Moon 12:45 AM EDT (6/30) 1:55 PM EDT (6/30)
Length of Visible Light 15h 48m
Length of Day
14h 45m
Last Quarter, 45% of the Moon is Illuminated
Jun 30
Last Quarter
Jul 8
New
Jul 15
First Quarter
Jul 22
Full
Jul 29
Last Quarter

Hourly Weather History & Observations

Time (EDT) Temp. Heat Index Dew Point Humidity Pressure Visibility Wind Dir Wind Speed Gust Speed Precip Events Conditions
12:15 AM 75.2 °F - 71.6 °F 89% 29.72 in 10.0 mi Calm Calm - N/A   Clear
12:35 AM 75.2 °F - 71.6 °F 89% 29.72 in 10.0 mi Calm Calm - N/A   Clear
12:55 AM 73.4 °F - 69.8 °F 88% 29.72 in 10.0 mi Calm Calm - N/A   Clear
1:15 AM 73.4 °F - 71.6 °F 94% 29.73 in 10.0 mi Calm Calm - N/A   Mostly Cloudy
1:35 AM 73.4 °F - 71.6 °F 94% 29.72 in 10.0 mi Calm Calm - N/A   Scattered Clouds
1:55 AM 73.4 °F - 69.8 °F 88% 29.72 in 10.0 mi Calm Calm - N/A   Clear
2:15 AM 73.4 °F - 69.8 °F 88% 29.72 in 10.0 mi SSE 4.6 mph - N/A   Clear
2:35 AM 73.4 °F - 69.8 °F 88% 29.72 in 10.0 mi SSE 4.6 mph - N/A   Clear
2:55 AM 73.4 °F - 71.6 °F 94% 29.72 in 10.0 mi SSE 4.6 mph - N/A   Clear
3:15 AM 73.4 °F - 71.6 °F 94% 29.71 in 10.0 mi South 4.6 mph - N/A   Clear
3:35 AM 73.4 °F - 71.6 °F 94% 29.71 in 10.0 mi SSE 4.6 mph - N/A   Scattered Clouds
3:55 AM 73.4 °F - 71.6 °F 94% 29.71 in 10.0 mi SSE 4.6 mph - N/A   Mostly Cloudy
4:15 AM 73.4 °F - 71.6 °F 94% 29.72 in 7.0 mi SSE 4.6 mph - N/A   Mostly Cloudy
4:35 AM 73.4 °F - 71.6 °F 94% 29.72 in 7.0 mi SSE 4.6 mph - N/A   Mostly Cloudy
4:55 AM 73.4 °F - 71.6 °F 94% 29.73 in 7.0 mi SSE 4.6 mph - N/A   Mostly Cloudy
5:15 AM 73.4 °F - 71.6 °F 94% 29.73 in 5.0 mi SSE 3.5 mph - N/A   Mostly Cloudy
5:35 AM 73.4 °F - 71.6 °F 94% 29.73 in 5.0 mi SSE 4.6 mph - N/A   Overcast
5:55 AM 73.4 °F - 71.6 °F 94% 29.74 in 5.0 mi SSE 4.6 mph - N/A   Overcast
6:15 AM 73.4 °F - 71.6 °F 94% 29.74 in 4.0 mi SSE 4.6 mph - N/A   Mostly Cloudy
6:35 AM 75.2 °F - 73.4 °F 94% 29.75 in 4.0 mi South 4.6 mph - N/A   Overcast
6:55 AM 75.2 °F - 73.4 °F 94% 29.75 in 4.0 mi South 4.6 mph - N/A   Overcast
7:15 AM 75.2 °F - 73.4 °F 94% 29.76 in 5.0 mi South 3.5 mph - N/A   Overcast
7:35 AM 75.2 °F - 73.4 °F 94% 29.77 in 7.0 mi South 4.6 mph - N/A   Overcast
7:55 AM 75.2 °F - 73.4 °F 94% 29.78 in 7.0 mi South 3.5 mph - N/A   Overcast
8:15 AM 75.2 °F - 73.4 °F 94% 29.79 in 7.0 mi South 4.6 mph - N/A   Overcast
8:35 AM 75.2 °F - 73.4 °F 94% 29.78 in 7.0 mi SSW 3.5 mph - N/A   Overcast
8:55 AM 77.0 °F - 73.4 °F 89% 29.78 in 7.0 mi South 3.5 mph - N/A   Overcast
9:15 AM 78.8 °F - 73.4 °F 83% 29.79 in 10.0 mi Calm Calm - N/A   Overcast
9:35 AM 78.8 °F - 73.4 °F 83% 29.79 in 10.0 mi SSW 4.6 mph - N/A   Overcast
9:55 AM 78.8 °F - 73.4 °F 83% 29.79 in 10.0 mi South 4.6 mph - N/A   Overcast
10:15 AM 78.8 °F - 73.4 °F 83% 29.79 in 7.0 mi SSW 3.5 mph - N/A   Overcast
10:35 AM 80.6 °F 85.4 °F 73.4 °F 79% 29.79 in 10.0 mi Calm Calm - N/A   Overcast
10:55 AM 80.6 °F 85.4 °F 73.4 °F 79% 29.78 in 7.0 mi Calm Calm - N/A   Mostly Cloudy
11:15 AM 80.6 °F 85.4 °F 73.4 °F 79% 29.78 in 10.0 mi SW 3.5 mph - N/A   Mostly Cloudy
11:35 AM 82.4 °F 88.2 °F 73.4 °F 74% 29.79 in 10.0 mi Calm Calm - N/A   Mostly Cloudy
11:55 AM 80.6 °F 85.4 °F 73.4 °F 79% 29.79 in 10.0 mi South 3.5 mph - N/A   Overcast
12:15 PM 80.6 °F 85.4 °F 73.4 °F 79% 29.79 in 7.0 mi Calm Calm - N/A Rain Light Rain
12:35 PM 80.6 °F 86.2 °F 75.2 °F 84% 29.79 in 7.0 mi Calm Calm - N/A   Light Drizzle
12:55 PM 80.6 °F 86.2 °F 75.2 °F 84% 29.79 in 7.0 mi SE 3.5 mph - N/A   Light Drizzle
1:15 PM 80.6 °F 85.4 °F 73.4 °F 79% 29.79 in 10.0 mi SE 5.8 mph - N/A   Mostly Cloudy
1:35 PM 80.6 °F 85.4 °F 73.4 °F 79% 29.79 in 10.0 mi SSE 4.6 mph - N/A   Scattered Clouds
1:55 PM 80.6 °F 85.4 °F 73.4 °F 79% 29.79 in 10.0 mi SSE 4.6 mph - N/A   Clear
2:15 PM 80.6 °F 84.6 °F 71.6 °F 74% 29.78 in 10.0 mi SE 8.1 mph - N/A   Scattered Clouds
2:35 PM 80.6 °F 84.6 °F 71.6 °F 74% 29.77 in 10.0 mi SSE 6.9 mph - N/A   Scattered Clouds
2:55 PM 82.4 °F 87.2 °F 71.6 °F 70% 29.77 in 10.0 mi SSE 4.6 mph - N/A   Clear
3:15 PM 84.2 °F 90.9 °F 73.4 °F 70% 29.77 in 10.0 mi SSW 3.5 mph - N/A   Scattered Clouds
3:35 PM 84.2 °F 90.9 °F 73.4 °F 70% 29.76 in 10.0 mi South 8.1 mph - N/A   Scattered Clouds
3:55 PM 82.4 °F 88.2 °F 73.4 °F 74% 29.77 in 10.0 mi South 3.5 mph - N/A   Scattered Clouds
4:15 PM 82.4 °F 88.2 °F 73.4 °F 74% 29.78 in 10.0 mi SW 3.5 mph - N/A   Mostly Cloudy
4:35 PM 80.6 °F 85.4 °F 73.4 °F 79% 29.79 in 10.0 mi West 8.1 mph - N/A   Scattered Clouds
4:55 PM 78.8 °F - 73.4 °F 83% 29.78 in 7.0 mi WSW 4.6 mph - N/A   Drizzle
5:15 PM 75.2 °F - 71.6 °F 89% 29.79 in 7.0 mi Calm Calm - N/A Rain Rain
5:35 PM 75.2 °F - 71.6 °F 89% 29.79 in 10.0 mi South 4.6 mph - 0.01 in   Clear
5:55 PM 77.0 °F - 73.4 °F 89% 29.79 in 10.0 mi Calm Calm - 0.01 in   Clear
6:15 PM 75.2 °F - 71.6 °F 89% 29.79 in 10.0 mi South 3.5 mph - N/A   Scattered Clouds
6:35 PM 75.2 °F - 69.8 °F 83% 29.80 in 10.0 mi South 5.8 mph - N/A   Scattered Clouds
6:55 PM 75.2 °F - 71.6 °F 89% 29.79 in 10.0 mi SSE 4.6 mph - N/A   Clear
7:15 PM 73.4 °F - 71.6 °F 94% 29.81 in 10.0 mi South 4.6 mph - N/A   Clear
7:35 PM 75.2 °F - 71.6 °F 89% 29.81 in 10.0 mi SE 4.6 mph - N/A   Clear
7:55 PM 73.4 °F - 71.6 °F 94% 29.83 in 10.0 mi SSW 5.8 mph - N/A   Scattered Clouds
8:15 PM 73.4 °F - 71.6 °F 94% 29.84 in 10.0 mi SSE 4.6 mph - N/A Rain Light Rain
8:35 PM 73.4 °F - 69.8 °F 88% 29.85 in 10.0 mi South 4.6 mph - N/A   Drizzle
8:55 PM 73.4 °F - 69.8 °F 88% 29.85 in 10.0 mi South 4.6 mph - N/A   Light Drizzle
9:15 PM 71.6 °F - 69.8 °F 94% 29.85 in 10.0 mi South 3.5 mph - N/A   Light Drizzle
9:35 PM 71.6 °F - 69.8 °F 94% 29.85 in 10.0 mi WSW 3.5 mph - N/A   Scattered Clouds
9:55 PM 71.6 °F - 69.8 °F 94% 29.85 in 10.0 mi Calm Calm - N/A   Light Drizzle
10:15 PM 71.6 °F - 69.8 °F 94% 29.86 in 10.0 mi SSW 3.5 mph - N/A   Mostly Cloudy
10:35 PM 71.6 °F - 68.0 °F 88% 29.86 in 10.0 mi South 3.5 mph - N/A Rain Rain
10:55 PM 71.6 °F - 68.0 °F 88% 29.85 in 10.0 mi SSW 3.5 mph - 0.01 in Rain Light Rain
11:15 PM 71.6 °F - 69.8 °F 94% 29.86 in 10.0 mi South 3.5 mph - N/A Rain Rain
11:35 PM 71.6 °F - 69.8 °F 94% 29.86 in 10.0 mi Calm Calm - 0.01 in   Light Drizzle
11:55 PM 71.6 °F - 69.8 °F 94% 29.87 in 10.0 mi Calm Calm - 0.01 in   Light Drizzle